Regional Weather Roundup
Issued by NWS

Home | Current Version | Previous Version | Text Only | Print | Product List | Glossary On
Versions: 1 2 3 4 5 6 7 8 9 10 11 12 13 14 15 16 17 18 19 20 21 22 23 24 25 26 27 28 29 30 31 32 33 34 35 36 37 38 39 40 41 42 43 44 45 46 47 48 49 50
000
ASUS46 KSEW 282210
RWRWA

WASHINGTON REGIONAL WEATHER ROUNDUP
NATIONAL WEATHER SERVICE SEATTLE WA
300 PM PDT SAT MAR 28 2015

NOTE:"FAIR" INDICATES FEW OR NO CLOUDS BELOW 12,000 FEET WITH NO
SIGNIFICANT WEATHER AND/OR OBSTRUCTIONS TO VISIBILITY.

WAZ505-507>509-282300-
SEATTLE, TACOMA, EVERETT, AND VICINITY

CITY           SKY/WX    TMP DP  RH WIND       PRES   REMARKS
EVERETT        PTSUNNY   59  40  49 S10       30.31S
BOEING FIELD   PTSUNNY   64  43  46 SW10G17   30.32F
RENTON         MOSUNNY   62  42  47 S17G24    30.32F
SEATAC AIRPORT PTSUNNY   58  43  57 SW14G23   30.34S
JBLM-MCCHORD   CLOUDY    57  47  69 S12       30.33F
PUYALLUP       MOCLDY    55  50  82 VRB3      30.35S
BREMERTON      PTSUNNY   61  45  55 SW18G25   30.32F
JBLM-FT LEWIS  PTSUNNY   58  47  65 S12       30.33F
TACOMA NARROWS PTSUNNY   56  44  64 S9        30.35S
$$

WAZ001-503-506-510-514-515-282300-
NORTH INTERIOR

CITY           SKY/WX    TMP DP  RH WIND       PRES   REMARKS
BELLINGHAM     MOSUNNY   57  41  55 CALM      30.30F
FRIDAY HARBOR  CLOUDY    57  43  59 VRB5      30.31F
EASTSOUND      PTSUNNY   57  43  58 CALM      30.29F
PORT ANGELES   CLOUDY    55  44  66 NE7       30.31F
NAS WHIDBEY    PTSUNNY   56  46  69 W8        30.31F
ARLINGTON      MOSUNNY   59  43  55 S14       30.31F
BURLINGTON     SUNNY     57  43  58 MISG      30.31F
$$

WAZ020-022-039-040-504-511-512-282300-
SOUTHWEST INTERIOR

CITY           SKY/WX    TMP DP  RH WIND       PRES   REMARKS
SHELTON        CLOUDY    57  44  62 W15       30.31F
OLYMPIA        CLOUDY    57  46  66 SW10G18   30.34F
CHEHALIS       FAIR      61  46  59 SW9G18    30.34F
KELSO          PTSUNNY   61  45  55 NW6       30.39F
VANCOUVER      PTSUNNY   59  42  53 W3        30.37F
SCAPPOOSE, OR  MOSUNNY   62  39  42 SW9       30.35F
PORTLAND, OR   PTSUNNY   60  41  49 SW9       30.38S
$$

WAZ021-516-517-282300-
WASHINGTON COAST

CITY           SKY/WX    TMP DP  RH WIND       PRES   REMARKS
FORKS          LGT RAIN  51  49  92 VRB7      30.32S FOG
HOQUIAM        CLOUDY    55  48  77 S13       30.36F
ASTORIA, OR    PTSUNNY   56  44  64 SW15G22   30.37F
$$

WAZ019-023-024-040-518-519-282300-
CASCADE MOUNTAINS AND COLUMBIA GORGE

CITY           SKY/WX    TMP DP  RH WIND       PRES   REMARKS
TROUTDALE, OR  MOSUNNY   60  41  49 SW7       30.37S
THE DALLES, OR MOSUNNY   63  40  42 NW20G30   30.33S
$$

WAZ026-027-041>044-520-521-282300-
EAST SLOPES

CITY           SKY/WX    TMP DP  RH WIND       PRES   REMARKS
OMAK           CLOUDY    65  26  23 NW7       30.10R
WENATCHEE      MOSUNNY   64  31  28 NW16G26   30.21R
ELLENSBURG     MOSUNNY   58  37  45 NW24G35   30.27R
YAKIMA         MOSUNNY   66  30  26 W12       30.25R
$$

WAZ028-034-035-282300-
COLUMBIA BASIN

CITY           SKY/WX    TMP DP  RH WIND       PRES   REMARKS
EPHRATA        CLOUDY    62  36  37 SW13      30.19R
MOSES LAKE     CLOUDY    63  35  35 SW17      30.21R
PASCO          PTSUNNY   64  37  36 W25G31    30.26S
HERMISTON, OR  MOSUNNY   63  35  35 W22G29    30.29S
$$

WAZ036>038-282300-
NORTHEAST WASHINGTON

CITY           SKY/WX    TMP DP  RH WIND       PRES   REMARKS
SPOKANE GEIGER PTSUNNY   55  35  47 SW25G35   30.15R
SPOKANE FELTS  PTSUNNY   58  35  42 W17G33    30.15R
FAIRCHILD AFB  DRIZZLE   54  36  50 SW24G35   30.15R
COEURDALENE,ID CLOUDY    54  37  54 SW18G26   30.15R
DEER PARK      CLOUDY    58  34  40 SW18G26   30.12R
$$

WAZ029>033-282300-
SOUTHEAST WASHINGTON

CITY           SKY/WX    TMP DP  RH WIND       PRES   REMARKS
PULLMAN        PTSUNNY   52  37  56 W22G33    30.25R
LEWISTON, ID   CLOUDY    60  36  40 W15G22    30.23R
WALLA WALLA    CLOUDY    60  39  45 W21       30.29R
PENDLETON, OR  PTSUNNY   58  36  43 W24G32    30.28F
$$



USA.gov is the U.S. government's official web portal to all federal, state and local government web resources and services.